Regional Weather Roundup
Issued by NWS

Home | Current Version | Previous Version | Text Only | Print | Product List | Glossary On
Versions: 1 2 3 4 5 6 7 8 9 10 11 12 13 14 15 16 17 18 19 20 21 22 23 24 25 26 27 28 29 30 31 32 33 34 35 36 37 38 39 40 41 42 43 44 45 46 47 48 49 50
581
ASUS43 KTOP 101508
RWRKS

WEATHER ROUNDUP FOR KANSAS
NATIONAL WEATHER SERVICE GOODLAND KS
900 AM CST WED FEB 10 2016

NOTE:  "FAIR" INDICATES FEW OR NO CLOUDS BELOW 12,000 FEET WITH NO
SIGNIFICANT WEATHER AND/OR OBSTRUCTIONS TO VISIBILITY.

KSZ001>006-013>018-027>032-041>047-101600-
NORTHWEST KANSAS

CITY           SKY/WX    TMP DP  RH WIND       PRES   REMARKS
GOODLAND       CLOUDY    39  19  44 W16       30.07S WCI  30
HAYS           SUNNY     39  23  52 W9        30.01S
HILL CITY      SUNNY     38  26  62 W7        29.99F
RUSSELL        SUNNY     37  28  70 SW13      29.99F WCI  29
$$

KSZ061>065-074>080-084>089-101600-
SOUTHWEST KANSAS

CITY           SKY/WX    TMP DP  RH WIND       PRES   REMARKS
DODGE CITY     SUNNY     39  24  55 W16       30.08F WCI  30
ELKHART          N/A     43  20  40 W12         N/A
GARDEN CITY    SUNNY     37  27  67 W14       30.08F WCI  28
GREAT BEND     SUNNY     37  27  65 SW13      30.04F WCI  29
LIBERAL        SUNNY     39  25  56 W12       30.13S WCI  32
PRATT          SUNNY     38  26  63 W10       30.07S WCI  30
$$

KSZ066>073-081>083-090>101-101600-
SOUTHEAST KANSAS

CITY           SKY/WX    TMP DP  RH WIND       PRES   REMARKS
CHANUTE        SUNNY     29  12  49 SW22G28   30.15F WCI  15
COFFEYVILLE    SUNNY     29  14  53 S16       30.21F WCI  17
HUTCHINSON     SUNNY     32  21  64 S10       30.08F WCI  24
MEDICINE LODGE   N/A     31  23  72 CALM      30.10F
NEWTON         SUNNY     28  14  54 S20G25    30.08F WCI  15
PARSONS        SUNNY     29  14  53 S13       30.18F WCI  19
WICHITA INTL   MOSUNNY   30  16  56 S15       30.12F WCI  19
WICHITA JABRA  SUNNY     29  15  56 S14G23    30.10F WCI  18
WICHITA MCCONL SUNNY     29  15  55 S16       30.12F WCI  17
WINFIELD       SUNNY     31  15  52 S15       30.16S WCI  20
$$

KSZ007>012-019>026-033>040-048>060-102>105-101600-
NORTHEAST KANSAS

CITY           SKY/WX    TMP DP  RH WIND       PRES   REMARKS
CONCORDIA      SUNNY     32  23  69 SW13      29.97F WCI  22
EMPORIA        SUNNY     29  12  49 S24G31    30.07F WCI  15
LAWRENCE       SUNNY     29  15  56 S10       30.11F WCI  20
MANHATTAN      SUNNY     32  18  56 SW17      30.03F WCI  21
MARYSVILLE     SUNNY     30  19  64 SW12      30.00S WCI  21
OLATHE IND     SUNNY     28  14  55 S12G23    30.12F WCI  18
OLATHE EXE     MOSUNNY   25  14  63 S9        30.11F
SALINA         SUNNY     33  22  63 S16       30.03F WCI  23
TOPEKA BILLARD SUNNY     29  12  49 S14G21    30.08F WCI  18
TOPEKA FORBES  SUNNY     30  14  51 S15       30.07F WCI  19
$$




USA.gov is the U.S. government's official web portal to all federal, state and local government web resources and services.